{"data":{"norad_id":65419,"intl_designator":"2025-192R","name":"STARLINK-35085","alt_names":[],"object_type":"PAYLOAD","status":"ACTIVE","operator":null,"country":"US","launch_date":"2025-08-31","launch_site_code":"AFETR","launch_vehicle":null,"mission":null,"orbit_class":"UNKNOWN","rcs_meters":null,"size_class":null,"mass_kg":null,"dimensions":null,"purposes":["comms"],"wikipedia_slug":null,"has_3d_model":false,"image_url":null,"decayed_at":null,"tle_current":{"epoch":"2026-09-20T22:03:16.811712Z","epoch_age_seconds":78747,"freshness":"FRESH","line1":"1 65419U 25192R   26263.91894458  .00013758  00000+0  45431-3 0  9994","line2":"2 65419  53.1609  43.4857 0001166  88.8533 271.2602 15.31697930 59302","mean_motion":15.3169793,"eccentricity":0.0001166,"inclination_deg":53.1609,"raan_deg":43.4857,"arg_perigee_deg":88.8533,"mean_anomaly_deg":271.2602,"bstar":0.00045431,"rev_number":5930,"period_min":94.013315014404,"perigee_km":469.94758601775,"apogee_km":471.54474557201,"semimajor_km":6848.8831657949,"source":"CELESTRAK","updated_at":"2026-09-21T09:00:35.605301Z"}}}